UAE875 OMDB-OTHH

Flight info

Callsign UAE875
Flight time 0h 47m
Altitude 22000
Route NABIX P699 OXARI M430 TOSNA
Aircraft A359/H-SDE2E3GHIJ3J4J5LM1ORWXY/LB1D1

Departure

Time 2026-05-07 20:21
Airport Dubai International Airport (OMDB)

Arrival

Time 2026-05-07 21:08
Airport Hamad International Airport (OTHH)
Time Latitude Longitude Altitude Speed Heading
2026-05-07 19:43 25.24556 55.36490 27 ft 0 kts 31°
2026-05-07 19:43 25.24560 55.36493 27 ft 0 kts 31°
2026-05-07 20:04 25.24551 55.36487 27 ft 4 kts 31°
2026-05-07 20:04 25.24528 55.36472 26 ft 4 kts 31°
2026-05-07 20:04 25.24509 55.36459 25 ft 4 kts 18°
2026-05-07 20:04 25.24484 55.36458 25 ft 4 kts 333°
2026-05-07 20:05 25.24465 55.36476 25 ft 4 kts 301°
2026-05-07 20:05 25.24454 55.36502 26 ft 4 kts 290°
2026-05-07 20:05 25.24446 55.36525 25 ft 1 kts 290°
2026-05-07 20:08 25.24450 55.36514 27 ft 5 kts 290°
2026-05-07 20:08 25.24479 55.36453 27 ft 13 kts 299°
2026-05-07 20:09 25.24535 55.36351 27 ft 17 kts 302°
2026-05-07 20:09 25.24604 55.36229 27 ft 20 kts 302°
2026-05-07 20:09 25.24681 55.36092 27 ft 22 kts 302°
2026-05-07 20:10 25.24857 55.35779 27 ft 25 kts 303°
2026-05-07 20:10 25.24961 55.35615 27 ft 27 kts 304°
2026-05-07 20:10 25.25064 55.35434 27 ft 28 kts 302°
2026-05-07 20:10 25.25139 55.35304 27 ft 20 kts 305°
2026-05-07 20:11 25.25225 55.35176 27 ft 22 kts 303°
2026-05-07 20:11 25.25310 55.35027 27 ft 24 kts 302°
2026-05-07 20:11 25.25407 55.34903 27 ft 20 kts 338°
2026-05-07 20:11 25.25539 55.34945 27 ft 21 kts 30°
2026-05-07 20:12 25.25623 55.35001 27 ft 18 kts 31°
2026-05-07 20:12 25.25729 55.35076 27 ft 14 kts 42°
2026-05-07 20:12 25.25748 55.35177 27 ft 14 kts 73°
2026-05-07 20:12 25.25820 55.35248 27 ft 15 kts 31°
2026-05-07 20:13 25.25920 55.35315 28 ft 18 kts 32°
2026-05-07 20:13 25.25979 55.35376 28 ft 0 kts 53°
2026-05-07 20:14 25.25983 55.35381 28 ft 4 kts 54°
2026-05-07 20:14 25.26009 55.35444 28 ft 12 kts 80°
2026-05-07 20:15 25.25993 55.35542 28 ft 14 kts 112°
2026-05-07 20:15 25.25939 55.35646 28 ft 17 kts 121°
2026-05-07 20:15 25.25871 55.35768 28 ft 20 kts 122°
2026-05-07 20:15 25.25793 55.35906 29 ft 22 kts 122°
2026-05-07 20:16 25.25706 55.36060 29 ft 25 kts 121°
2026-05-07 20:16 25.25611 55.36228 29 ft 27 kts 123°
2026-05-07 20:16 25.25509 55.36410 28 ft 29 kts 122°
2026-05-07 20:16 25.25398 55.36606 28 ft 31 kts 122°
2026-05-07 20:17 25.25283 55.36812 28 ft 28 kts 122°
2026-05-07 20:17 25.25178 55.36998 29 ft 29 kts 122°
2026-05-07 20:17 25.25071 55.37188 30 ft 30 kts 121°
2026-05-07 20:17 25.24958 55.37389 30 ft 32 kts 122°
2026-05-07 20:18 25.24839 55.37602 29 ft 34 kts 122°
2026-05-07 20:18 25.24724 55.37807 29 ft 27 kts 122°
2026-05-07 20:18 25.24666 55.37929 29 ft 8 kts 92°
2026-05-07 20:18 25.24684 55.37963 29 ft 0 kts 37°
2026-05-07 20:19 25.24684 55.37964 29 ft 1 kts 37°
2026-05-07 20:19 25.24715 55.37987 30 ft 8 kts 34°
2026-05-07 20:19 25.24769 55.38017 31 ft 9 kts 16°
2026-05-07 20:20 25.24823 55.37992 31 ft 10 kts 311°
2026-05-07 20:20 25.24865 55.37917 32 ft 17 kts 302°
2026-05-07 20:20 25.25045 55.37594 33 ft 88 kts 301°
2026-05-07 20:20 25.25494 55.36783 30 ft 157 kts 301°
2026-05-07 20:21 25.26112 55.35664 587 ft 171 kts 302°
2026-05-07 20:21 25.26763 55.34568 1456 ft 171 kts 303°
2026-05-07 20:21 25.27425 55.33403 1969 ft 189 kts 300°
2026-05-07 20:21 25.28145 55.32071 2340 ft 213 kts 299°
2026-05-07 20:22 25.28898 55.30616 2967 ft 222 kts 294°
2026-05-07 20:22 25.29194 55.28944 3629 ft 227 kts 263°
2026-05-07 20:22 25.28707 55.27282 4419 ft 230 kts 246°
2026-05-07 20:22 25.28013 55.25670 5171 ft 235 kts 244°
2026-05-07 20:23 25.27283 55.24020 5876 ft 242 kts 244°
2026-05-07 20:23 25.26548 55.22335 6519 ft 245 kts 245°
2026-05-07 20:23 25.25814 55.20630 6879 ft 247 kts 245°
2026-05-07 20:23 25.25078 55.18909 7012 ft 248 kts 245°
2026-05-07 20:24 25.24354 55.17170 7329 ft 252 kts 248°
2026-05-07 20:24 25.23894 55.15279 7923 ft 263 kts 259°
2026-05-07 20:24 25.23591 55.13212 8411 ft 280 kts 262°
2026-05-07 20:24 25.23307 55.11058 9143 ft 287 kts 262°
2026-05-07 20:25 25.23016 55.08859 9956 ft 291 kts 262°
2026-05-07 20:25 25.22713 55.06606 10538 ft 306 kts 262°
2026-05-07 20:25 25.22387 55.04202 10876 ft 328 kts 261°
2026-05-07 20:25 25.22036 55.01637 11204 ft 347 kts 261°
2026-05-07 20:26 25.21668 54.98953 11720 ft 358 kts 261°
2026-05-07 20:26 25.21290 54.96209 12359 ft 365 kts 261°
2026-05-07 20:26 25.20921 54.93414 13012 ft 372 kts 263°
2026-05-07 20:26 25.20705 54.90587 13673 ft 377 kts 265°
2026-05-07 20:27 25.20528 54.87644 14303 ft 381 kts 265°
2026-05-07 20:27 25.20344 54.84724 14689 ft 382 kts 265°
2026-05-07 20:27 25.20151 54.81837 14810 ft 383 kts 265°
2026-05-07 20:27 25.19946 54.78898 14818 ft 384 kts 265°
2026-05-07 20:28 25.19837 54.75950 14814 ft 385 kts 270°
2026-05-07 20:28 25.19964 54.72995 14873 ft 386 kts 273°
2026-05-07 20:28 25.20143 54.70026 15361 ft 389 kts 273°
2026-05-07 20:28 25.20324 54.67043 16088 ft 390 kts 273°
2026-05-07 20:29 25.20502 54.64039 16738 ft 394 kts 273°
2026-05-07 20:29 25.20680 54.61007 17395 ft 398 kts 272°
2026-05-07 20:29 25.20858 54.57944 18073 ft 401 kts 273°
2026-05-07 20:29 25.21039 54.54858 18671 ft 404 kts 273°
2026-05-07 20:30 25.21427 54.51774 19304 ft 407 kts 280°
2026-05-07 20:30 25.22058 54.48715 19939 ft 410 kts 283°
2026-05-07 20:30 25.22816 54.45662 20486 ft 413 kts 285°
2026-05-07 20:30 25.23625 54.42613 20762 ft 415 kts 285°
2026-05-07 20:31 25.24450 54.39541 20815 ft 420 kts 285°
2026-05-07 20:31 25.25273 54.36442 20814 ft 420 kts 285°
2026-05-07 20:31 25.26079 54.33341 20815 ft 420 kts 284°
2026-05-07 20:31 25.26874 54.30232 20816 ft 420 kts 284°
2026-05-07 20:32 25.27661 54.27119 20814 ft 420 kts 284°
2026-05-07 20:32 25.28433 54.24007 20813 ft 420 kts 283°
2026-05-07 20:32 25.29201 54.20889 20812 ft 421 kts 284°
2026-05-07 20:32 25.29966 54.17771 20812 ft 421 kts 283°
2026-05-07 20:33 25.30732 54.14653 20812 ft 421 kts 284°
2026-05-07 20:33 25.31493 54.11529 20812 ft 420 kts 283°
2026-05-07 20:33 25.32191 54.08394 20810 ft 420 kts 282°
2026-05-07 20:33 25.32846 54.05247 20809 ft 420 kts 281°
2026-05-07 20:34 25.33487 54.02099 20815 ft 420 kts 281°
2026-05-07 20:34 25.34128 53.98950 20816 ft 420 kts 281°
2026-05-07 20:34 25.34775 53.95798 20818 ft 421 kts 281°
2026-05-07 20:34 25.35431 53.92644 20815 ft 421 kts 282°
2026-05-07 20:35 25.36082 53.89537 20818 ft 421 kts 282°
2026-05-07 20:35 25.36745 53.86389 20813 ft 420 kts 281°
2026-05-07 20:35 25.37410 53.83248 20814 ft 419 kts 281°
2026-05-07 20:35 25.38072 53.80112 20812 ft 419 kts 281°
2026-05-07 20:36 25.38732 53.76973 20813 ft 419 kts 281°
2026-05-07 20:36 25.39389 53.73835 20818 ft 419 kts 281°
2026-05-07 20:36 25.40048 53.70695 20814 ft 419 kts 281°
2026-05-07 20:36 25.40706 53.67550 20815 ft 420 kts 281°
2026-05-07 20:37 25.41363 53.64408 20812 ft 420 kts 281°
2026-05-07 20:37 25.42000 53.61258 20811 ft 419 kts 278°
2026-05-07 20:37 25.42234 53.58062 20817 ft 416 kts 266°
2026-05-07 20:37 25.41942 53.54886 20812 ft 415 kts 260°
2026-05-07 20:38 25.41449 53.51744 20811 ft 414 kts 257°
2026-05-07 20:38 25.40849 53.48633 20812 ft 413 kts 255°
2026-05-07 20:38 25.40202 53.45538 20815 ft 413 kts 255°
2026-05-07 20:38 25.39542 53.42442 20815 ft 414 kts 255°
2026-05-07 20:39 25.38887 53.39346 20818 ft 414 kts 255°
2026-05-07 20:39 25.38244 53.36247 20815 ft 413 kts 255°
2026-05-07 20:39 25.37646 53.33137 20817 ft 414 kts 257°
2026-05-07 20:39 25.37118 53.30007 20817 ft 414 kts 258°
2026-05-07 20:40 25.36622 53.26871 20817 ft 414 kts 258°
2026-05-07 20:40 25.36132 53.23729 20822 ft 414 kts 258°
2026-05-07 20:40 25.35637 53.20591 20823 ft 415 kts 258°
2026-05-07 20:40 25.35132 53.17455 20823 ft 415 kts 258°
2026-05-07 20:41 25.34621 53.14318 20823 ft 415 kts 258°
2026-05-07 20:41 25.34106 53.11181 20821 ft 415 kts 258°
2026-05-07 20:41 25.33586 53.08045 20820 ft 414 kts 258°
2026-05-07 20:41 25.33066 53.04915 20823 ft 415 kts 258°
2026-05-07 20:42 25.32543 53.01779 20822 ft 415 kts 258°
2026-05-07 20:42 25.32020 52.98642 20823 ft 415 kts 258°
2026-05-07 20:42 25.31499 52.95511 20825 ft 415 kts 258°
2026-05-07 20:42 25.30976 52.92377 20826 ft 415 kts 258°
2026-05-07 20:43 25.30449 52.89243 20826 ft 415 kts 258°
2026-05-07 20:43 25.29922 52.86111 20826 ft 415 kts 258°
2026-05-07 20:43 25.29395 52.82979 20826 ft 415 kts 258°
2026-05-07 20:43 25.28868 52.79848 20830 ft 414 kts 258°
2026-05-07 20:44 25.28340 52.76717 20825 ft 415 kts 258°
2026-05-07 20:44 25.27812 52.73589 20831 ft 414 kts 258°
2026-05-07 20:44 25.27253 52.70515 20826 ft 413 kts 254°
2026-05-07 20:44 25.26208 52.67583 20834 ft 410 kts 239°
2026-05-07 20:45 25.24693 52.64927 20825 ft 409 kts 234°
2026-05-07 20:45 25.23088 52.62331 20829 ft 409 kts 234°
2026-05-07 20:45 25.21476 52.59734 20826 ft 409 kts 234°
2026-05-07 20:45 25.19870 52.57139 20828 ft 410 kts 234°
2026-05-07 20:46 25.18265 52.54539 20828 ft 410 kts 234°
2026-05-07 20:46 25.16668 52.51946 20570 ft 405 kts 234°
2026-05-07 20:46 25.15081 52.49368 19673 ft 409 kts 234°
2026-05-07 20:46 25.13474 52.46761 18944 ft 412 kts 234°
2026-05-07 20:47 25.11704 52.44294 18267 ft 409 kts 223°
2026-05-07 20:47 25.09535 52.42284 17553 ft 406 kts 215°
2026-05-07 20:47 25.07265 52.40446 16879 ft 403 kts 214°
2026-05-07 20:47 25.05005 52.38641 16232 ft 400 kts 214°
2026-05-07 20:48 25.02766 52.36848 15654 ft 395 kts 215°
2026-05-07 20:48 25.00599 52.35106 15525 ft 377 kts 215°
2026-05-07 20:48 24.98528 52.33439 15381 ft 360 kts 215°
2026-05-07 20:48 24.96549 52.31844 15274 ft 345 kts 214°
2026-05-07 20:49 24.94656 52.30320 15137 ft 330 kts 215°
2026-05-07 20:49 24.92838 52.28857 15017 ft 317 kts 215°
2026-05-07 20:49 24.91144 52.27363 14968 ft 313 kts 223°
2026-05-07 20:49 24.89901 52.25400 14882 ft 314 kts 245°
2026-05-07 20:50 24.89391 52.23055 14396 ft 319 kts 262°
2026-05-07 20:50 24.89215 52.20622 13969 ft 318 kts 265°
2026-05-07 20:50 24.89070 52.18204 13583 ft 315 kts 266°
2026-05-07 20:50 24.88919 52.15810 13189 ft 312 kts 265°
2026-05-07 20:51 24.88759 52.13437 12817 ft 310 kts 265°
2026-05-07 20:51 24.88628 52.11078 12450 ft 308 kts 269°
2026-05-07 20:51 24.88987 52.08776 12091 ft 306 kts 291°
2026-05-07 20:51 24.90166 52.06865 11864 ft 304 kts 317°
2026-05-07 20:52 24.91964 52.05613 11767 ft 309 kts 336°
2026-05-07 20:52 24.93962 52.04714 11652 ft 311 kts 339°
2026-05-07 20:52 24.95980 52.03863 11528 ft 310 kts 340°
2026-05-07 20:52 24.97994 52.03008 11404 ft 311 kts 340°
2026-05-07 20:53 25.00010 52.02142 11287 ft 312 kts 340°
2026-05-07 20:53 25.02025 52.01271 11155 ft 311 kts 340°
2026-05-07 20:53 25.04016 52.00409 11036 ft 311 kts 340°
2026-05-07 20:53 25.06055 51.99525 10979 ft 311 kts 340°
2026-05-07 20:54 25.08111 51.98952 10974 ft 297 kts
2026-05-07 20:54 25.09989 51.99483 10962 ft 278 kts 32°
2026-05-07 20:54 25.11307 52.00965 10651 ft 270 kts 64°
2026-05-07 20:54 25.11675 52.02946 10287 ft 264 kts 94°
2026-05-07 20:55 25.11277 52.04915 9888 ft 264 kts 111°
2026-05-07 20:55 25.10372 52.06676 9449 ft 265 kts 128°
2026-05-07 20:55 25.08987 52.08007 9073 ft 264 kts 147°
2026-05-07 20:55 25.07331 52.08863 8722 ft 263 kts 159°
2026-05-07 20:56 25.05594 52.09516 8293 ft 265 kts 160°
2026-05-07 20:56 25.03865 52.10188 7956 ft 261 kts 157°
2026-05-07 20:56 25.02177 52.10897 7612 ft 259 kts 159°
2026-05-07 20:56 25.00421 52.11374 7199 ft 262 kts 173°
2026-05-07 20:57 24.98613 52.11195 6829 ft 263 kts 196°
2026-05-07 20:57 24.97055 52.10152 6473 ft 265 kts 224°
2026-05-07 20:57 24.96112 52.08419 6052 ft 268 kts 252°
2026-05-07 20:57 24.95983 52.06395 5721 ft 265 kts 279°
2026-05-07 20:58 24.96656 52.04534 5374 ft 262 kts 306°
2026-05-07 20:58 24.97990 52.03202 4995 ft 260 kts 332°
2026-05-07 20:58 24.99618 52.02377 4679 ft 256 kts 338°
2026-05-07 20:58 25.01253 52.01621 4321 ft 255 kts 334°
2026-05-07 20:59 25.02725 52.00490 3718 ft 263 kts 315°
2026-05-07 20:59 25.03788 51.98833 3246 ft 268 kts 295°
2026-05-07 20:59 25.04274 51.96853 3013 ft 270 kts 276°
2026-05-07 20:59 25.04091 51.94797 2973 ft 272 kts 252°
2026-05-07 21:00 25.03578 51.92798 2980 ft 271 kts 263°
2026-05-07 21:00 25.03538 51.91432 2986 ft 269 kts 277°
2026-05-07 21:00 25.03992 51.89455 2982 ft 265 kts 290°
2026-05-07 21:00 25.04650 51.87570 2984 ft 262 kts 293°
2026-05-07 21:01 25.05272 51.85678 2985 ft 263 kts 291°
2026-05-07 21:01 25.05810 51.83748 2984 ft 264 kts 287°
2026-05-07 21:01 25.06287 51.81786 2985 ft 265 kts 286°
2026-05-07 21:01 25.06725 51.79823 2981 ft 259 kts 286°
2026-05-07 21:02 25.07120 51.77952 2982 ft 242 kts 286°
2026-05-07 21:02 25.07488 51.76180 2986 ft 235 kts 286°
2026-05-07 21:02 25.07848 51.74430 2985 ft 233 kts 285°
2026-05-07 21:02 25.08194 51.72734 2983 ft 219 kts 284°
2026-05-07 21:03 25.08553 51.71172 2980 ft 200 kts 292°
2026-05-07 21:03 25.09314 51.70026 2977 ft 177 kts 322°
2026-05-07 21:03 25.10324 51.69387 2896 ft 161 kts 340°
2026-05-07 21:03 25.11326 51.68973 2768 ft 147 kts 340°
2026-05-07 21:04 25.12265 51.68569 2535 ft 145 kts 340°
2026-05-07 21:04 25.13198 51.68154 2316 ft 140 kts 339°
2026-05-07 21:04 25.14042 51.67768 2297 ft 126 kts 339°
2026-05-07 21:04 25.14849 51.67396 2169 ft 126 kts 339°
2026-05-07 21:05 25.15666 51.67032 2009 ft 127 kts 339°
2026-05-07 21:05 25.16483 51.66673 1850 ft 126 kts 340°
2026-05-07 21:05 25.17295 51.66317 1696 ft 126 kts 339°
2026-05-07 21:05 25.18112 51.65957 1535 ft 126 kts 339°
2026-05-07 21:06 25.18926 51.65598 1367 ft 125 kts 339°
2026-05-07 21:06 25.19736 51.65241 1209 ft 126 kts 338°
2026-05-07 21:06 25.20548 51.64881 1050 ft 125 kts 337°
2026-05-07 21:06 25.21357 51.64524 897 ft 125 kts 336°
2026-05-07 21:07 25.22163 51.64169 748 ft 123 kts 335°
2026-05-07 21:07 25.22952 51.63807 594 ft 123 kts 334°
2026-05-07 21:07 25.23752 51.63470 427 ft 123 kts 335°
2026-05-07 21:07 25.24534 51.63125 260 ft 121 kts 335°
2026-05-07 21:08 25.25309 51.62782 106 ft 119 kts 337°
2026-05-07 21:08 25.26074 51.62443 33 ft 113 kts 338°
2026-05-07 21:08 25.26634 51.62199 31 ft 48 kts 338°
2026-05-07 21:08 25.26742 51.62151 30 ft 17 kts 338°